SCP
1 1 1 1 2 2 2 1 1 2 1 1 1 1 1 1 1 1 1 1 1 1 2 1 1 1 2 2 2 2 1 1 1 1 0 0 1 1 1 0 0 0 0
1 1 1 1 1 1 2 2 3 3 1 1 1 1 2 3 4 4 6 6 6 6 7 6 5 1 1 1 0 0 0 0 0 0 1 0 0 1 1 -0 0 0 0
0 0 0 0 0 1 1 1 2 3 4 4 3 2 6 6 5 4 4 3 2 3 4 4 2 1 0 0 0 0 0 0 -0 0 0 1 0 0 0 0 0 0 0
1 1 0 0 0 1 1 1 1 1 2 3 3 3 4 4 4 4 1 1 1 2 2 3 4 2 1 0 1 1 0 0 0 -0 1 1 1 0 0 0 0 0 0
0 0 0 0 0 0 0 0 1 1 1 1 2 2 3 2 2 1 1 1 1 0 0 0 1 2 2 1 2 1 1 0 0 0 0 0 1 1 0 0 0 0 0
0 0 0 0 0 0 0 0 0 0 0 0 0 1 1 0 0 0 0 0 0 0 0 0 0 0 0 0 2 2 1 1 0 0 0 0 0 0 0 -0 0 0 1
0 0 0 0 0 0 0 0 0 0 0 0 0 0 0 0 0 0 0 0 0 0 0 0 0 0 0 0 0 0 0 -1 -0 -0 -0 -0 -0 0 0 0 0 -0 1
0 0 0 0 0 0 0 0 0 0 0 0 0 0 0 0 0 0 0 0 0 0 0 0 0 0 0 0 0 0 0 0 -0 -0 -0 -0 -0 0 0 1 0 0 0
0 0 0 0 0 0 0 0 0 0 0 0 0 0 0 0 0 0 0 0 0 0 0 0 0 0 0 0 0 0 0 -0 -0 0 -0 -0 0 0 1 1 1 0 0
0 0 0 0 0 0 0 0 0 0 0 0 0 0 0 0 0 0 0 0 0 0 0 0 0 0 0 0 0 0 0 0 0 0 0 0 0 0 0 0 1 1 0
0 0 0 0 0 0 0 0 0 0 0 0 0 0 0 0 0 0 0 0 0 0 0 0 0 0 0 0 0 0 0 0 0 0 0 0 0 0 0 0 0 0 1
0 0 0 0 0 0 0 0 0 0 0 0 0 0 0 0 0 0 0 0 0 0 0 0 0 0 0 0 0 0 0 0 0 0 0 0 0 0 0 0 1 1 1
0 0 0 0 0 0 0 0 0 0 0 0 0 0 0 0 0 0 0 0 0 0 0 0 0 0 0 0 0 0 0 0 0 0 0 0 0 0 0 0 0 0 1
0 0 0 0 0 0 0 0 0 0 0 0 0 0 0 0 0 0 0 0 0 0 0 0 0 0 0 0 0 0 0 0 0 0 0 0 0 0 0 0 0 0 0
0 0 0 0 0 0 0 0 0 0 0 0 0 0 0 0 0 0 0 0 0 0 0 0 0 0 0 0 0 0 0 0 0 0 0 0 0 0 0 0 0 0 0
0 0 0 0 0 0 0 0 0 0 0 0 0 0 0 0 0 0 0 0 0 0 0 0 0 0 0 0 0 0 0 0 0 0 0 0 0 0 0 0 0 0 0
0 0 0 0 0 0 0 0 0 0 0 0 0 0 0 0 0 0 0 0 0 0 0 0 0 0 0 0 0 0 0 0 0 0 0 0 0 0 0 0 0 0 0
0 0 0 1 1 0 0 0 0 0 0 0 0 0 0 0 0 0 0 0 0 0 0 0 0 0 0 0 0 0 0 0 0 0 0 0 0 0 0 0 0 0 0
0 0 1 1 0 0 0 0 0 0 0 0 0 0 0 0 0 0 0 0 0 0 0 0 0 0 0 0 0 0 0 0 0 0 0 0 0 0 0 0 0 0 0
1 1 0 0 0 0 0 0 0 0 0 0 0 0 0 0 0 0 0 0 0 0 0 0 0 0 0 0 0 0 0 0 0 0 0 0 0 0 0 0 0 0 0
0 0 0 0 0 0 0 0 0 0 0 0 0 0 0 0 0 0 0 0 0 0 0 0 0 0 0 0 0 0 0 0 0 0 0 0 0 0 0 0 0 0 0
0 0 0 0 0 0 0 0 0 0 0 0 0 0 0 0 0 0 0 0 0 0 0 0 0 0 0 0 0 0 0 0 0 0 0 0 0 0 0 0 0 0 0
0 0 0 0 0 0 0 0 0 0 0 0 0 0 0 0 0 0 0 0 0 0 0 0 0 0 0 0 0 0 0 0 0 0 0 0 0 0 0 0 0 0 0
0 0 0 0 0 0 0 0 0 0 0 0 0 0 0 0 0 0 0 0 0 0 0 0 0 0 0 0 0 0 0 0 0 0 0 0 0 0 0 0 0 0 0
0 0 0 0 0 0 0 0 0 0 0 0 0 0 0 0 0 0 0 0 0 0 0 0 0 0 0 0 0 0 0 0 0 0 0 0 0 0 0 0 0 0 0
0 0 0 0 0 0 0 0 0 0 0 0 0 0 0 0 0 0 0 0 0 0 0 0 0 0 0 0 0 0 0 0 0 0 0 0 0 0 0 0 0 0 0
Wind_Speed_500mb
14 13 7 11 16 12 5 9 11 17 21 23 25 23 29 29 29 28 28 28 27 26 28 23 23 21 28 32 36 36 39 40 34 41 44 33 41 40 31 26 24 20 22
16 17 18 16 13 9 7 6 10 12 14 18 21 23 25 28 28 25 33 32 36 38 33 32 37 41 40 43 40 36 43 33 40 62 44 28 26 29 24 16 20 17 18
16 16 17 18 18 18 18 14 5 15 17 15 17 22 30 33 23 23 18 38 26 21 25 29 31 51 54 59 47 40 50 68 90 102 38 16 35 39 20 25 14 16 15
17 18 20 21 21 21 20 19 13 11 2 16 1 14 15 12 13 14 21 9 16 14 9 9 24 37 39 50 57 42 47 47 82 92 38 26 33 32 32 23 25 19 16
19 19 20 21 23 24 25 24 25 23 19 13 14 12 9 11 17 21 14 15 21 27 30 37 41 40 46 37 39 44 51 47 65 60 46 43 37 37 38 29 26 17 22
25 24 23 23 23 20 22 26 27 27 24 21 18 12 9 6 1 7 9 19 17 19 24 26 30 33 42 50 40 36 41 42 50 65 57 47 42 39 41 40 38 39 24
29 28 27 25 21 19 18 18 20 22 22 22 21 21 21 20 18 13 10 14 12 13 20 20 23 25 26 32 41 42 48 46 41 42 48 49 46 40 45 49 54 51 30
31 31 29 24 20 17 15 14 15 17 17 17 19 18 17 13 14 16 16 14 14 17 22 23 24 27 30 31 31 33 36 27 35 43 46 43 43 45 48 43 45 51 43
33 33 29 24 22 17 15 13 12 12 12 13 14 15 16 17 12 13 16 13 16 18 23 25 30 30 27 25 29 28 18 27 29 25 37 33 37 34 34 39 38 40 44
37 36 31 28 23 18 16 14 12 10 10 12 13 12 10 9 11 11 15 18 19 22 26 30 31 33 30 25 22 29 29 35 30 25 35 27 25 29 36 37 41 42 42
42 40 35 33 26 19 16 14 12 13 15 15 13 10 6 5 8 11 15 20 24 28 29 30 32 30 28 29 28 21 24 20 27 25 26 30 23 26 28 29 41 43 37
44 42 38 38 32 23 20 18 18 18 16 14 8 3 1 3 5 9 16 24 28 34 34 35 33 31 31 29 29 27 22 23 24 22 24 27 26 30 27 25 31 33 40
44 43 42 43 36 27 23 22 21 20 17 12 8 7 4 4 7 12 20 28 33 38 45 42 35 33 32 31 29 30 30 32 27 26 28 25 26 27 27 26 29 27 31
39 41 42 42 39 32 26 26 22 21 20 15 14 13 10 9 12 18 25 33 38 41 37 35 36 35 34 31 30 28 41 43 35 33 37 29 26 31 32 25 25 28 34
39 42 44 42 39 34 27 29 26 24 21 17 14 13 12 13 17 23 29 32 37 35 35 36 36 35 33 30 36 47 49 51 50 45 39 35 27 42 39 39 31 32 27
39 44 46 41 37 32 30 29 26 22 19 15 14 13 15 17 22 27 31 33 33 34 35 37 37 36 32 38 53 55 55 52 46 43 41 41 42 45 29 38 33 39 39
41 43 47 45 32 29 28 26 23 21 17 14 13 14 18 23 27 30 31 32 33 36 37 38 36 36 34 44 54 60 52 45 41 37 33 33 31 34 33 35 32 26 30
35 35 38 30 26 28 28 23 22 18 14 12 13 17 22 26 29 31 31 32 33 36 37 38 36 37 35 45 53 57 49 34 32 32 33 35 33 33 36 42 41 36 32
12 20 28 36 36 29 23 21 19 14 10 12 16 19 23 27 28 31 33 34 36 34 35 35 36 38 39 39 50 52 38 33 31 29 29 32 34 35 40 48 42 40 40
29 35 39 38 34 24 21 18 13 9 10 13 16 20 23 26 29 31 32 36 33 36 35 36 36 39 42 37 44 43 34 33 31 29 27 29 34 39 42 39 38 40 36
41 36 33 31 26 20 13 9 5 6 10 14 18 21 23 27 27 27 31 34 32 37 40 42 39 39 35 34 41 47 41 29 33 31 28 24 37 37 38 40 39 33 41
42 36 33 28 19 11 4 1 5 10 14 18 21 24 27 28 27 31 34 30 34 37 39 40 36 31 31 32 37 42 46 45 37 33 30 30 43 52 54 54 50 48 45
34 28 25 20 13 11 9 5 9 14 19 22 25 27 29 30 31 31 33 32 30 33 33 33 34 34 32 32 35 42 45 44 44 34 37 44 46 48 54 51 51 47 42
28 21 17 13 9 10 11 12 16 20 23 26 27 29 31 32 31 31 30 31 31 34 33 36 36 39 41 44 40 31 38 45 41 47 46 43 48 47 43 42 41 38 36
23 19 15 11 9 11 15 17 19 22 25 27 30 31 30 34 36 34 34 35 37 36 38 40 43 47 48 42 45 51 53 54 56 59 61 56 47 40 36 37 39 38 35
19 16 15 11 11 13 15 18 22 26 30 34 33 36 39 37 37 38 43 40 44 47 53 58 59 56 56 58 57 58 57 59 56 58 63 62 51 44 41 38 36 35 37
Wind_Direction_500mb
80 73 65 141 170 163 201 216 227 215 213 220 228 236 233 238 235 232 232 228 232 233 236 238 251 256 250 249 252 266 274 273 270 271 261 262 267 258 249 252 249 261 268
82 74 71 81 98 112 150 181 187 225 230 231 228 229 240 228 223 211 202 208 210 215 214 226 236 246 248 250 251 258 261 268 293 274 263 262 275 265 245 249 248 256 265
112 96 84 78 74 82 85 69 103 178 180 209 218 223 220 214 221 225 212 225 220 231 235 240 266 273 261 263 254 257 267 276 294 306 306 352 291 311 312 217 234 224 267
127 114 104 96 90 85 81 68 84 96 137 139 322 211 221 231 210 170 232 236 231 239 261 279 268 273 271 263 256 267 289 282 283 279 291 275 278 283 293 298 247 242 272
146 131 119 111 104 97 88 82 82 77 80 112 120 113 136 185 215 228 242 251 255 255 269 271 279 279 279 285 289 291 292 288 278 283 281 271 271 270 275 274 288 266 240
155 146 136 125 115 105 93 87 83 81 82 81 85 99 142 167 182 280 315 306 311 322 317 316 295 288 278 273 270 280 285 284 286 279 277 275 276 280 279 266 255 261 238
160 156 150 143 132 120 109 91 84 84 82 81 82 85 87 77 74 61 42 41 20 12 3 6 351 336 320 297 281 264 253 299 292 291 287 273 264 266 274 278 283 274 274
170 168 161 156 148 139 128 111 102 97 94 92 93 94 88 88 66 66 53 40 29 12 10 11 10 359 347 330 301 282 275 307 309 293 286 284 278 263 254 260 272 284 276
178 175 171 168 161 154 148 142 134 122 114 110 104 97 88 86 74 48 55 35 21 13 1 360 353 355 350 345 325 311 320 334 313 316 316 300 288 262 271 256 266 267 279
185 184 182 178 174 169 162 159 144 146 142 130 115 107 92 63 40 32 27 22 14 4 357 351 348 345 346 335 322 318 301 292 328 312 303 319 315 301 282 263 253 248 269
191 191 190 186 185 184 187 184 183 181 156 153 140 123 92 35 27 20 9 356 352 347 345 338 332 328 328 325 313 308 315 317 290 303 311 308 303 303 296 288 268 256 254
196 194 195 194 194 194 195 192 177 176 173 167 169 183 96 357 347 344 336 334 334 331 329 325 320 315 310 308 311 309 294 286 278 291 305 302 301 297 303 299 283 269 255
199 198 199 200 201 203 204 201 195 192 201 205 233 250 262 290 314 325 322 323 322 320 318 317 316 314 309 308 301 297 296 263 274 281 276 288 295 299 301 297 301 285 279
209 211 204 203 206 209 213 210 210 210 211 231 244 244 260 287 307 314 313 313 315 316 316 314 312 310 309 307 305 279 264 275 266 254 257 264 286 289 278 275 290 299 287
207 217 210 208 207 212 216 212 216 221 218 231 236 243 267 292 303 308 312 313 313 313 313 311 310 308 306 304 277 283 283 282 284 277 273 275 262 270 270 282 277 274 290
216 218 215 215 215 211 207 214 216 212 220 221 229 248 275 294 305 310 313 312 311 310 309 308 306 305 305 288 286 286 288 290 286 283 280 274 267 267 274 273 277 273 278
223 222 216 213 214 201 189 199 200 203 208 216 240 269 289 301 307 308 309 309 308 307 304 302 302 298 296 293 290 293 298 297 291 284 282 278 269 262 255 258 271 276 268
225 219 202 178 182 177 165 184 194 198 207 235 265 285 295 300 302 302 302 303 303 303 304 301 300 297 296 289 291 293 307 302 295 289 283 282 277 271 262 255 258 260 260
205 182 159 151 156 149 154 179 189 201 230 267 278 290 297 301 301 299 300 298 303 302 303 302 299 291 290 290 288 295 306 304 300 297 287 278 273 267 260 257 257 257 256
125 121 122 130 132 145 164 179 196 231 264 278 295 302 305 304 301 297 298 291 296 300 299 294 292 292 293 295 297 303 310 303 302 302 300 295 277 265 268 269 263 261 262
122 124 127 126 137 147 158 181 235 269 297 307 311 311 306 301 302 298 290 292 294 295 295 296 296 297 301 301 296 305 310 307 299 296 295 285 281 276 260 261 264 263 254
119 124 125 125 127 121 120 263 306 314 321 320 319 318 317 314 307 299 296 295 294 295 296 297 297 295 293 292 292 294 301 302 303 297 291 282 276 275 274 271 269 270 264
117 119 119 114 97 66 47 25 327 329 323 327 326 323 319 317 311 306 302 301 296 292 291 294 294 294 291 282 285 292 292 295 296 289 281 282 287 283 277 279 270 261 261
108 107 102 94 71 35 17 1 343 342 339 328 326 319 321 317 319 308 303 296 291 290 291 293 293 292 292 292 286 284 284 289 287 295 292 279 277 291 295 294 269 263 257
98 92 86 76 46 12 4 352 341 346 341 329 326 326 318 314 313 308 300 293 290 283 282 286 289 290 286 282 276 273 279 283 280 282 282 285 283 281 279 278 274 268 259
91 80 72 60 34 10 358 351 346 344 331 326 323 316 317 310 308 305 303 297 295 292 280 281 285 286 280 282 279 277 278 280 277 275 275 276 275 272 267 265 264 259 258
Wind_Speed_850mb
14 13 7 11 16 12 5 9 11 17 21 23 25 23 29 29 29 28 28 28 27 26 28 23 23 21 28 32 36 36 39 40 34 41 44 33 41 40 31 26 24 20 22
16 17 18 16 13 9 7 6 10 12 14 18 21 23 25 28 28 25 33 32 36 38 33 32 37 41 40 43 40 36 43 33 40 62 44 28 26 29 24 16 20 17 18
16 16 17 18 18 18 18 14 5 15 17 15 17 22 30 33 23 23 18 38 26 21 25 29 31 51 54 59 47 40 50 68 90 102 38 16 35 39 20 25 14 16 15
17 18 20 21 21 21 20 19 13 11 2 16 1 14 15 12 13 14 21 9 16 14 9 9 24 37 39 50 57 42 47 47 82 92 38 26 33 32 32 23 25 19 16
19 19 20 21 23 24 25 24 25 23 19 13 14 12 9 11 17 21 14 15 21 27 30 37 41 40 46 37 39 44 51 47 65 60 46 43 37 37 38 29 26 17 22
25 24 23 23 23 20 22 26 27 27 24 21 18 12 9 6 1 7 9 19 17 19 24 26 30 33 42 50 40 36 41 42 50 65 57 47 42 39 41 40 38 39 24
29 28 27 25 21 19 18 18 20 22 22 22 21 21 21 20 18 13 10 14 12 13 20 20 23 25 26 32 41 42 48 46 41 42 48 49 46 40 45 49 54 51 30
31 31 29 24 20 17 15 14 15 17 17 17 19 18 17 13 14 16 16 14 14 17 22 23 24 27 30 31 31 33 36 27 35 43 46 43 43 45 48 43 45 51 43
33 33 29 24 22 17 15 13 12 12 12 13 14 15 16 17 12 13 16 13 16 18 23 25 30 30 27 25 29 28 18 27 29 25 37 33 37 34 34 39 38 40 44
37 36 31 28 23 18 16 14 12 10 10 12 13 12 10 9 11 11 15 18 19 22 26 30 31 33 30 25 22 29 29 35 30 25 35 27 25 29 36 37 41 42 42
42 40 35 33 26 19 16 14 12 13 15 15 13 10 6 5 8 11 15 20 24 28 29 30 32 30 28 29 28 21 24 20 27 25 26 30 23 26 28 29 41 43 37
44 42 38 38 32 23 20 18 18 18 16 14 8 3 1 3 5 9 16 24 28 34 34 35 33 31 31 29 29 27 22 23 24 22 24 27 26 30 27 25 31 33 40
44 43 42 43 36 27 23 22 21 20 17 12 8 7 4 4 7 12 20 28 33 38 45 42 35 33 32 31 29 30 30 32 27 26 28 25 26 27 27 26 29 27 31
39 41 42 42 39 32 26 26 22 21 20 15 14 13 10 9 12 18 25 33 38 41 37 35 36 35 34 31 30 28 41 43 35 33 37 29 26 31 32 25 25 28 34
39 42 44 42 39 34 27 29 26 24 21 17 14 13 12 13 17 23 29 32 37 35 35 36 36 35 33 30 36 47 49 51 50 45 39 35 27 42 39 39 31 32 27
39 44 46 41 37 32 30 29 26 22 19 15 14 13 15 17 22 27 31 33 33 34 35 37 37 36 32 38 53 55 55 52 46 43 41 41 42 45 29 38 33 39 39
41 43 47 45 32 29 28 26 23 21 17 14 13 14 18 23 27 30 31 32 33 36 37 38 36 36 34 44 54 60 52 45 41 37 33 33 31 34 33 35 32 26 30
35 35 38 30 26 28 28 23 22 18 14 12 13 17 22 26 29 31 31 32 33 36 37 38 36 37 35 45 53 57 49 34 32 32 33 35 33 33 36 42 41 36 32
12 20 28 36 36 29 23 21 19 14 10 12 16 19 23 27 28 31 33 34 36 34 35 35 36 38 39 39 50 52 38 33 31 29 29 32 34 35 40 48 42 40 40
29 35 39 38 34 24 21 18 13 9 10 13 16 20 23 26 29 31 32 36 33 36 35 36 36 39 42 37 44 43 34 33 31 29 27 29 34 39 42 39 38 40 36
41 36 33 31 26 20 13 9 5 6 10 14 18 21 23 27 27 27 31 34 32 37 40 42 39 39 35 34 41 47 41 29 33 31 28 24 37 37 38 40 39 33 41
42 36 33 28 19 11 4 1 5 10 14 18 21 24 27 28 27 31 34 30 34 37 39 40 36 31 31 32 37 42 46 45 37 33 30 30 43 52 54 54 50 48 45
34 28 25 20 13 11 9 5 9 14 19 22 25 27 29 30 31 31 33 32 30 33 33 33 34 34 32 32 35 42 45 44 44 34 37 44 46 48 54 51 51 47 42
28 21 17 13 9 10 11 12 16 20 23 26 27 29 31 32 31 31 30 31 31 34 33 36 36 39 41 44 40 31 38 45 41 47 46 43 48 47 43 42 41 38 36
23 19 15 11 9 11 15 17 19 22 25 27 30 31 30 34 36 34 34 35 37 36 38 40 43 47 48 42 45 51 53 54 56 59 61 56 47 40 36 37 39 38 35
19 16 15 11 11 13 15 18 22 26 30 34 33 36 39 37 37 38 43 40 44 47 53 58 59 56 56 58 57 58 57 59 56 58 63 62 51 44 41 38 36 35 37
Wind_Direction_850mb
80 73 65 141 170 163 201 216 227 215 213 220 228 236 233 238 235 232 232 228 232 233 236 238 251 256 250 249 252 266 274 273 270 271 261 262 267 258 249 252 249 261 268
82 74 71 81 98 112 150 181 187 225 230 231 228 229 240 228 223 211 202 208 210 215 214 226 236 246 248 250 251 258 261 268 293 274 263 262 275 265 245 249 248 256 265
112 96 84 78 74 82 85 69 103 178 180 209 218 223 220 214 221 225 212 225 220 231 235 240 266 273 261 263 254 257 267 276 294 306 306 352 291 311 312 217 234 224 267
127 114 104 96 90 85 81 68 84 96 137 139 322 211 221 231 210 170 232 236 231 239 261 279 268 273 271 263 256 267 289 282 283 279 291 275 278 283 293 298 247 242 272
146 131 119 111 104 97 88 82 82 77 80 112 120 113 136 185 215 228 242 251 255 255 269 271 279 279 279 285 289 291 292 288 278 283 281 271 271 270 275 274 288 266 240
155 146 136 125 115 105 93 87 83 81 82 81 85 99 142 167 182 280 315 306 311 322 317 316 295 288 278 273 270 280 285 284 286 279 277 275 276 280 279 266 255 261 238
160 156 150 143 132 120 109 91 84 84 82 81 82 85 87 77 74 61 42 41 20 12 3 6 351 336 320 297 281 264 253 299 292 291 287 273 264 266 274 278 283 274 274
170 168 161 156 148 139 128 111 102 97 94 92 93 94 88 88 66 66 53 40 29 12 10 11 10 359 347 330 301 282 275 307 309 293 286 284 278 263 254 260 272 284 276
178 175 171 168 161 154 148 142 134 122 114 110 104 97 88 86 74 48 55 35 21 13 1 360 353 355 350 345 325 311 320 334 313 316 316 300 288 262 271 256 266 267 279
185 184 182 178 174 169 162 159 144 146 142 130 115 107 92 63 40 32 27 22 14 4 357 351 348 345 346 335 322 318 301 292 328 312 303 319 315 301 282 263 253 248 269
191 191 190 186 185 184 187 184 183 181 156 153 140 123 92 35 27 20 9 356 352 347 345 338 332 328 328 325 313 308 315 317 290 303 311 308 303 303 296 288 268 256 254
196 194 195 194 194 194 195 192 177 176 173 167 169 183 96 357 347 344 336 334 334 331 329 325 320 315 310 308 311 309 294 286 278 291 305 302 301 297 303 299 283 269 255
199 198 199 200 201 203 204 201 195 192 201 205 233 250 262 290 314 325 322 323 322 320 318 317 316 314 309 308 301 297 296 263 274 281 276 288 295 299 301 297 301 285 279
209 211 204 203 206 209 213 210 210 210 211 231 244 244 260 287 307 314 313 313 315 316 316 314 312 310 309 307 305 279 264 275 266 254 257 264 286 289 278 275 290 299 287
207 217 210 208 207 212 216 212 216 221 218 231 236 243 267 292 303 308 312 313 313 313 313 311 310 308 306 304 277 283 283 282 284 277 273 275 262 270 270 282 277 274 290
216 218 215 215 215 211 207 214 216 212 220 221 229 248 275 294 305 310 313 312 311 310 309 308 306 305 305 288 286 286 288 290 286 283 280 274 267 267 274 273 277 273 278
223 222 216 213 214 201 189 199 200 203 208 216 240 269 289 301 307 308 309 309 308 307 304 302 302 298 296 293 290 293 298 297 291 284 282 278 269 262 255 258 271 276 268
225 219 202 178 182 177 165 184 194 198 207 235 265 285 295 300 302 302 302 303 303 303 304 301 300 297 296 289 291 293 307 302 295 289 283 282 277 271 262 255 258 260 260
205 182 159 151 156 149 154 179 189 201 230 267 278 290 297 301 301 299 300 298 303 302 303 302 299 291 290 290 288 295 306 304 300 297 287 278 273 267 260 257 257 257 256
125 121 122 130 132 145 164 179 196 231 264 278 295 302 305 304 301 297 298 291 296 300 299 294 292 292 293 295 297 303 310 303 302 302 300 295 277 265 268 269 263 261 262
122 124 127 126 137 147 158 181 235 269 297 307 311 311 306 301 302 298 290 292 294 295 295 296 296 297 301 301 296 305 310 307 299 296 295 285 281 276 260 261 264 263 254
119 124 125 125 127 121 120 263 306 314 321 320 319 318 317 314 307 299 296 295 294 295 296 297 297 295 293 292 292 294 301 302 303 297 291 282 276 275 274 271 269 270 264
117 119 119 114 97 66 47 25 327 329 323 327 326 323 319 317 311 306 302 301 296 292 291 294 294 294 291 282 285 292 292 295 296 289 281 282 287 283 277 279 270 261 261
108 107 102 94 71 35 17 1 343 342 339 328 326 319 321 317 319 308 303 296 291 290 291 293 293 292 292 292 286 284 284 289 287 295 292 279 277 291 295 294 269 263 257
98 92 86 76 46 12 4 352 341 346 341 329 326 326 318 314 313 308 300 293 290 283 282 286 289 290 286 282 276 273 279 283 280 282 282 285 283 281 279 278 274 268 259
91 80 72 60 34 10 358 351 346 344 331 326 323 316 317 310 308 305 303 297 295 292 280 281 285 286 280 282 279 277 278 280 277 275 275 276 275 272 267 265 264 259 258